Tracking 29493 objects as of 8-Sep-2024
HD Live streaming from Space Station
objects crossing your sky now

FENGYUN 1C DEB

Track FENGYUN 1C DEB now!
10-day predictions


NORAD ID: 35236
Int'l Code: 1999-025DQU
Perigee: 695.3 km
Apogee: 826.2 km
Inclination: 98.8 °
Period: 99.9 minutes
Semi major axis: 7131 km
RCS: 0.0131 m2 (small)
Launch date: May 10, 1999
Source: People's Republic of China (PRC)
Launch site: Taiyaun Space Center, China (TSC)

Note: This is SATELLITE DEBRIS
Your satellite tracking list
Your tracking list is empty




NASA's NSSDC Master Catalog

Two Line Element Set (TLE):
1 35236U 99025DQU 24245.47896865  .00006032  00000-0  17797-2 0  9998
2 35236  98.8033 150.7111 0091769 145.5695 215.1485 14.41490820911892
Source of the keplerian elements: AFSPC